[[{"header":{"parameterUnit":"m.s-1","parameterCategory":1,"la1":30.2991,"la2":30.254,"lo1":-89.0895,"lo2":-89.0444,"dy":0.0017,"dx":0.0017,"nx":28,"ny":28,"refTime":"2025-12-20T09:00:00:Z","depth":0,"parameterNumber":2,"parameterNumberName":"U-component_of_WINDS"},"data":[0,0,0,0,0,0,0,0,0,0,0,0,0,0,0,0,0,0,0,0,0,0,0,0,0,0,0,0,0,0,0,0,0,0,0,0,0,0,0,0,0,0,0,0,0,0,0,0,0,0,0,0,0,0,0,0,0,0,-3.8035,-3.8035,0,-3.8099,-3.8099,-3.81,-3.7988,-3.7984,-3.7981,-3.7977,-3.8042,-3.8047,-3.8052,0,0,0,0,0,0,0,0,0,0,0,0,0,-3.7815,-3.7819,-3.8035,-3.8035,-3.8036,-3.8098,-3.8099,-3.81,-3.7989,-3.7984,-3.798,-3.7975,-3.804,-3.8046,-3.8052,0,0,0,0,0,0,0,0,0,0,0,0,0,-3.7898,-3.7821,-3.8034,-3.7988,-3.7985,-3.8098,-3.8099,-3.81,-3.799,-3.7984,-3.7978,-3.7973,-3.8038,-3.8046,-3.8053,-3.8215,0,0,-3.8077,-3.8081,0,0,0,0,0,0,0,0,-3.7893,-3.7906,-3.7994,-3.7992,-3.7988,-3.803,-3.8045,-3.8139,-3.7991,-3.7988,-3.7977,-3.797,-3.8042,-3.8049,-3.8074,-3.8218,-3.822,-3.8078,-3.8083,-3.8086,-3.8088,0,0,0,0,0,0,0,-3.7888,-3.7902,-3.806,-3.7996,-3.7992,-3.7964,-3.7969,-3.8063,-3.8046,-3.7988,-3.798,-3.7989,-3.8039,-3.8066,-3.8074,-3.8221,-3.8078,-3.8085,-3.809,-3.8093,-3.85,-3.8506,0,0,0,0,0,0,-3.7888,-3.7898,-3.8058,-3.8062,-3.7926,-3.7972,-3.7978,-3.8022,-3.8045,-3.8043,-3.7994,-3.7983,-3.8056,-3.8065,-3.8076,-3.8266,-3.8086,-3.8093,-3.8098,-3.8494,-3.8502,-3.8508,0,0,0,0,0,0,-3.7883,-3.7903,-3.8055,-3.7978,-3.7995,-3.7982,-3.8032,-3.8026,-3.8053,-3.8049,-3.8045,-3.8024,-3.8052,-3.8065,-3.8181,-3.8267,-3.8097,-3.8104,-3.8487,-3.8497,-3.8505,-3.8648,0,0,0,0,0,0,-3.7878,-3.7902,-3.7964,-3.798,-3.8,-3.816,-3.8037,-3.8031,-3.8067,-3.8054,-3.8077,-3.8075,-3.8048,-3.817,-3.8189,-3.8275,-3.811,-3.8479,-3.8491,-3.8502,-3.8636,-3.8661,-3.8683,0,0,0,0,0,-3.787,-3.8001,-3.7967,-3.7987,-3.8077,-3.8165,-3.8176,-3.8143,-3.8074,-3.8136,-3.8133,-3.8075,-3.8255,-3.8183,-3.8203,-3.8293,-3.8474,-3.8488,-3.8501,-3.8625,-3.8656,-3.8682,0,0,0,0,0,0,-3.7995,-3.8003,-3.7965,-3.8105,-3.8136,-3.8146,-3.8222,-3.8176,-3.8226,-3.8212,-3.8168,-3.8174,-3.8299,-3.8307,-3.8227,-3.845,-3.8353,-3.8371,-3.844,-3.8469,-3.8492,-3.8487,-3.8117,0,0,0,0,0,-3.8039,-3.811,-3.8113,-3.8237,-3.8254,-3.8236,-3.8273,-3.8245,-3.8274,-3.8286,-3.8291,-3.8322,-3.8385,-3.8427,-3.8485,-3.8636,-3.8639,-3.8708,-3.8731,-3.8751,-3.8767,-3.8847,-3.8877,-3.8554,-3.8554,-3.8553,0,0,-3.813,-3.8143,-3.8191,-3.8262,-3.8282,-3.8356,-3.8247,-3.8331,-3.8385,-3.8298,-3.8408,-3.8414,-3.8444,-3.8578,-3.8638,-3.8589,-3.8857,-3.8768,-3.8784,-3.879,-3.8864,-3.8895,-3.8922,-3.8563,-3.8561,-3.856,0,0,-3.8334,-3.8352,-3.8456,-3.8478,-3.851,-3.8497,-3.8523,-3.854,-3.8541,-3.865,-3.8586,-3.8651,-3.8761,-3.8785,-3.8812,-3.9026,-3.8974,-3.9046,-3.9169,-3.9247,-3.9273,-3.9295,-3.9371,-3.9399,-3.9062,-3.9063,-3.9063,0,-3.8443,-3.8553,-3.8516,-3.8604,-3.8637,-3.8562,-3.8667,-3.869,-3.874,-3.8764,-3.8709,-3.8845,-3.8861,-3.8999,-3.9051,-3.9076,-3.9103,-3.9043,-3.9272,-3.9294,-3.9315,-3.9386,-3.9415,-3.9071,-3.907,-3.9069,-3.9069,0,-3.8686,-3.8763,-3.8844,-3.8894,-3.8936,-3.9032,-3.9009,-3.9056,-3.9024,-3.9017,-3.9129,-3.9145,-3.9205,-3.9236,-3.9206,-3.9371,-3.9339,-3.9279,-3.9181,-3.9355,-3.9421,-3.9448,-3.9084,-3.908,-3.9078,-3.9076,0,0,-3.897,-3.8997,-3.9028,-3.9049,-3.9079,-3.9137,-3.923,-3.9289,-3.933,-3.9367,-3.9443,-3.9538,-3.9483,-3.9513,-3.9485,-3.9554,-3.9722,-3.9485,-3.9485,-3.9528,-3.9904,-3.9948,-3.9981,-3.9688,-3.9693,-3.9697,-3.9901,0,-3.9172,-3.9333,-3.9301,-3.9458,-3.9529,-3.9459,-3.9539,-3.9566,-3.9563,-3.9622,-3.9617,-3.9685,-3.9607,-3.9625,-3.969,-3.9688,-3.9797,-3.9673,-3.9758,-3.9761,-3.9752,-4.0016,-4.0063,-4.0255,-3.9927,-3.9931,-3.9934,0,-3.943,-3.9476,-3.964,-3.9658,-3.9686,-3.976,-3.9811,-3.9869,-3.9897,-3.989,-3.9925,-3.9883,-3.9975,-3.9876,-4.0002,-3.9918,-3.9951,-3.9956,-3.9962,-3.9968,-3.9858,-4.0028,-4.0315,-4.0344,-3.9975,-3.9972,-3.9969,0,-3.9619,-3.9723,-3.9834,-3.9855,-3.9879,-3.9932,-3.9944,-3.9967,-4.0005,-4.005,-4.0073,-4.0128,-4.0158,-4.0202,-4.0176,-4.0107,-4.0306,-4.0205,-4.0302,-4.0303,-4.0346,-4.0344,-4.0642,-4.037,-4.0369,-4.0369,-4.0368,0,-3.9848,-3.9951,-3.992,-3.9988,-4.0101,-4.0064,-4.0177,-4.0181,-4.0203,-4.027,-4.0213,-4.0278,-4.024,-4.0302,-4.0283,-4.039,-4.0404,-4.04,-4.0393,-4.0404,-4.0405,-4.0425,-4.0411,-4.0376,-4.0374,-4.0373,-4.0372,0,-4.0079,-4.0062,-4.0179,-4.0192,-4.0198,-4.0281,-4.0292,-4.0355,-4.0347,-4.0434,-4.0452,-4.0439,-4.0509,-4.0488,-4.0563,-4.055,-4.0686,-4.0662,-4.0676,-4.067,-4.0768,-4.0758,-4.1089,-4.113,-4.0831,-4.0834,-4.0837,0,-4.0226,-4.0303,-4.0325,-4.0367,-4.0383,-4.0451,-4.0489,-4.0455,-4.0497,-4.0536,-4.0595,-4.0659,-4.0709,-4.0824,-4.0821,-4.0878,-4.0856,-4.0967,-4.0864,-4.0873,-4.0856,-4.0852,-4.0859,-4.0988,-4.0991,-4.0994,-4.0996,0,-4.0488,-4.0476,-4.0533,-4.0587,-4.0634,-4.0675,-4.0711,-4.0748,-4.0717,-4.0767,-4.0838,-4.0877,-4.0954,-4.1018,-4.107,-4.1082,-4.1035,-4.1029,-4.1054,-4.1066,-4.1071,-4.1069,-4.0732,-4.1022,-4.1019,-4.1017,-4.1016,-4.1015,-4.068,-4.0746,-4.0772,-4.0837,-4.086,-4.0895,-4.0956,-4.0956,-4.1014,-4.1074,-4.1051,-4.1132,-4.1159,-4.1224,-4.1243,-4.1305,-4.1262,-4.1299,-4.1308,-4.1318,-4.133,-4.1062,-4.1315,-4.1314,-4.1313,-4.1313,-4.1312,0,-4.0939,-4.0952,-4.1012,-4.1064,-4.1116,-4.1067,-4.1104,-4.115,-4.1223,-4.1252,-4.1302,-4.1383,-4.1446,-4.1449,-4.1507,-4.1557,-4.1536,-4.1573,-4.1569,-4.1572,-4.1365,-4.1337,-4.1589,-4.1589,-4.1589,-4.1588,-4.1588,-4.1588,-4.1079,-4.1187,-4.1178,-4.1297,-4.1309,-4.1389,-4.1414,-4.1446,-4.1469,-4.1562,-4.1614,-4.1615,-4.1634,-4.1693,-4.1748,-4.1747,-4.1771,-4.1817,-4.1808,-4.1614,-4.1587,-4.156,-4.1534,-4.1822,-4.1823,-4.2009,-4.201,-4.2012]},{"header":{"parameterUnit":"m.s-1","parameterCategory":1,"la1":30.2991,"la2":30.254,"lo1":-89.0895,"lo2":-89.0444,"dy":0.0017,"dx":0.0017,"nx":28,"ny":28,"refTime":"2025-12-20T09:00:00:Z","depth":0,"parameterNumber":3,"parameterNumberName":"V-component_of_WINDS"},"data":[0,0,0,0,0,0,0,0,0,0,0,0,0,0,0,0,0,0,0,0,0,0,0,0,0,0,0,0,0,0,0,0,0,0,0,0,0,0,0,0,0,0,0,0,0,0,0,0,0,0,0,0,0,0,0,0,0,0,0.0546,0.0545,0,0.0522,0.0521,0.0521,0.0456,0.0454,0.0453,0.0452,0.0427,0.0428,0.0428,0,0,0,0,0,0,0,0,0,0,0,0,0,0.0535,0.0536,0.0546,0.0545,0.0545,0.0522,0.0521,0.0521,0.0456,0.0454,0.0453,0.0451,0.0427,0.0428,0.0428,0,0,0,0,0,0,0,0,0,0,0,0,0,0.0528,0.0536,0.0546,0.051,0.0506,0.0522,0.0521,0.0521,0.0456,0.0454,0.0452,0.045,0.0427,0.0428,0.0429,0.0477,0,0,0.0432,0.0432,0,0,0,0,0,0,0,0,0.0529,0.0529,0.0515,0.0512,0.0508,0.049,0.0509,0.0506,0.0457,0.0475,0.0452,0.0449,0.045,0.0449,0.0449,0.0476,0.0475,0.0432,0.0432,0.0433,0.0433,0,0,0,0,0,0,0,0.0529,0.053,0.0536,0.0515,0.0511,0.0495,0.0492,0.0508,0.0475,0.0474,0.0469,0.0467,0.0447,0.0448,0.0448,0.0474,0.0432,0.0433,0.0433,0.0434,0.0542,0.0544,0,0,0,0,0,0,0.0535,0.053,0.0537,0.0535,0.0514,0.0497,0.0493,0.0498,0.0474,0.0469,0.0469,0.0464,0.0447,0.0447,0.0447,0.0504,0.0433,0.0434,0.0434,0.054,0.0543,0.0545,0,0,0,0,0,0,0.0535,0.0536,0.0538,0.0532,0.0531,0.0499,0.0505,0.0498,0.0499,0.0471,0.0464,0.0476,0.0446,0.0445,0.047,0.0502,0.0434,0.0435,0.0537,0.0541,0.0544,0.0617,0,0,0,0,0,0,0.0535,0.0537,0.0555,0.0532,0.0531,0.0562,0.0507,0.0499,0.0501,0.0494,0.0475,0.047,0.0444,0.0469,0.0471,0.0502,0.0436,0.0534,0.0539,0.0543,0.0612,0.0622,0.0632,0,0,0,0,0,0.0535,0.0575,0.0556,0.0557,0.0553,0.0564,0.0563,0.0532,0.0504,0.0522,0.0504,0.0471,0.0498,0.0472,0.0474,0.0506,0.0532,0.0537,0.0542,0.0607,0.062,0.0631,0,0,0,0,0,0,0.0601,0.0572,0.055,0.0584,0.0577,0.0553,0.0575,0.0547,0.0548,0.0542,0.0503,0.0499,0.0531,0.052,0.0493,0.0552,0.051,0.0515,0.0558,0.057,0.058,0.0583,0.0437,0,0,0,0,0,0.062,0.0632,0.0605,0.0638,0.0636,0.0606,0.061,0.0587,0.0578,0.0574,0.0558,0.0551,0.0558,0.0563,0.0568,0.0609,0.0605,0.0632,0.0642,0.065,0.0656,0.068,0.0692,0.0562,0.0562,0.0562,0,0,0.0659,0.0644,0.0654,0.0651,0.0643,0.0657,0.0604,0.062,0.063,0.0577,0.06,0.0588,0.0577,0.0612,0.0626,0.0604,0.0691,0.0657,0.0664,0.0665,0.0686,0.0699,0.0709,0.0566,0.0565,0.0564,0,0,0.0737,0.0726,0.0754,0.0747,0.0736,0.0716,0.0722,0.0703,0.0693,0.0716,0.0677,0.0688,0.07,0.0695,0.0694,0.0772,0.0742,0.0774,0.0827,0.085,0.0861,0.087,0.0899,0.091,0.078,0.078,0.078,0,0.0787,0.0805,0.0771,0.079,0.0791,0.0744,0.0773,0.0767,0.0758,0.076,0.0735,0.0751,0.074,0.0774,0.0793,0.0793,0.0801,0.0777,0.0862,0.087,0.0878,0.0906,0.0918,0.0784,0.0783,0.0783,0.0783,0,0.0868,0.0882,0.0905,0.0899,0.0902,0.0925,0.0896,0.0903,0.088,0.0863,0.0888,0.0873,0.0875,0.0881,0.0858,0.0912,0.0899,0.0869,0.0826,0.0895,0.0921,0.0932,0.079,0.0788,0.0787,0.0786,0,0,0.0988,0.0963,0.0972,0.097,0.0954,0.0964,0.0986,0.0988,0.0996,0.0991,0.101,0.1022,0.0995,0.0993,0.0969,0.099,0.1055,0.0957,0.0956,0.0978,0.1116,0.1141,0.1154,0.1035,0.1036,0.1038,0.1118,0,0.1063,0.11,0.107,0.1112,0.1126,0.1082,0.1101,0.1094,0.1079,0.1088,0.1071,0.1081,0.1043,0.1042,0.106,0.1043,0.1083,0.1037,0.1053,0.1054,0.1059,0.1167,0.1192,0.1268,0.1127,0.1129,0.113,0,0.1156,0.1157,0.1201,0.1185,0.1189,0.1207,0.1208,0.1217,0.1208,0.1196,0.1196,0.1167,0.1188,0.1144,0.1174,0.1144,0.1148,0.1141,0.1143,0.1145,0.1098,0.1174,0.1291,0.1304,0.1145,0.1144,0.1143,0,0.1242,0.1254,0.1282,0.1281,0.1262,0.1276,0.1268,0.1258,0.1262,0.1262,0.1265,0.1267,0.127,0.1273,0.1246,0.1216,0.128,0.1233,0.1271,0.1272,0.1288,0.1288,0.1411,0.1288,0.1287,0.1287,0.1287,0,0.1331,0.136,0.1321,0.1339,0.137,0.1336,0.1369,0.1357,0.1348,0.1363,0.1324,0.1339,0.1301,0.1313,0.1291,0.1321,0.1321,0.1313,0.1307,0.1317,0.1319,0.1321,0.1316,0.129,0.129,0.1289,0.1288,0,0.1433,0.1408,0.1436,0.1416,0.1412,0.1436,0.1419,0.1435,0.1417,0.1437,0.144,0.1412,0.1424,0.1397,0.1404,0.139,0.1432,0.1417,0.1436,0.1432,0.1472,0.147,0.1603,0.1619,0.1484,0.1485,0.1486,0,0.1492,0.1514,0.1497,0.1504,0.1499,0.1512,0.1516,0.1483,0.1489,0.1482,0.15,0.1508,0.1513,0.1534,0.1515,0.152,0.1506,0.1553,0.1507,0.1518,0.151,0.151,0.1513,0.1563,0.1564,0.1566,0.1567,0,0.1601,0.1588,0.1596,0.16,0.1606,0.1607,0.1606,0.1614,0.158,0.1589,0.16,0.1604,0.1613,0.1622,0.1624,0.1616,0.1587,0.1581,0.1591,0.1603,0.1614,0.1611,0.1464,0.1579,0.1577,0.1577,0.1576,0.1575,0.1685,0.1703,0.1695,0.1705,0.1701,0.1701,0.1715,0.17,0.1709,0.1714,0.1694,0.1711,0.1703,0.1702,0.1698,0.1711,0.169,0.1703,0.1707,0.1711,0.1719,0.161,0.1711,0.171,0.171,0.171,0.1709,0,0.1794,0.1787,0.1796,0.1797,0.1805,0.1776,0.1773,0.1783,0.1798,0.1793,0.18,0.1814,0.1823,0.1805,0.1812,0.1826,0.1813,0.1829,0.1829,0.1828,0.1736,0.1729,0.184,0.184,0.184,0.184,0.184,0.184,0.1852,0.1882,0.1868,0.1896,0.1888,0.1904,0.1906,0.1906,0.1902,0.192,0.1928,0.1916,0.1907,0.1913,0.1921,0.1915,0.192,0.1942,0.1932,0.1847,0.1834,0.1822,0.1815,0.1943,0.1943,0.2023,0.2024,0.2025]}]]